CW9461 Weather Reports


time (UTC)temp
F
wind
direction
speed
knots
gust
knots
rain 1hr
in
rain 24hr
in
rain mn
in
humidity
%
barometer
mb
20260507195605 68 263 3.5 8.7 0.00 0.00 0.00 67 1008.6
20260507194606 68 246 3.5 8.7 0.00 0.00 0.00 67 1008.8
20260507194105 68 254 3.5 8.7 0.00 0.00 0.00 68 1008.8
20260507193606 67 278 2.6 8.7 0.00 0.00 0.00 69 1008.8
20260507193104 67 257 2.6 7.0 0.00 0.00 0.00 70 1008.9
20260507192105 66 268 2.6 7.8 0.00 0.00 0.00 70 1009.1
20260507191605 66 253 4.3 10.4 0.00 0.00 0.00 71 1009.1
20260507191104 65 261 2.6 8.7 0.00 0.00 0.00 71 1009.1
20260507190605 65 263 3.5 7.0 0.00 0.00 0.00 71 1009.1
20260507185604 65 265 2.6 7.0 0.00 0.00 0.00 72 1009.5
20260507185105 65 250 4.3 11.3 0.00 0.00 0.00 72 1009.5
20260507184605 65 262 4.3 10.4 0.00 0.00 0.00 72 1009.5
20260507184105 64 277 3.5 7.0 0.00 0.00 0.00 73 1009.5
20260507183605 64 238 3.5 7.8 0.00 0.00 0.00 73 1009.5
20260507183105 64 255 2.6 7.0 0.00 0.00 0.00 74 1009.5
20260507181605 63 235 3.5 7.0 0.00 0.00 0.00 76 1009.5
20260507181106 62 281 3.5 8.7 0.00 0.00 0.00 76 1009.5
20260507180605 63 241 4.3 7.0 0.00 0.00 0.00 75 1009.6
20260507180105 62 266 2.6 7.0 0.00 0.00 0.00 76 1009.8
20260507175606 62 264 3.5 6.1 0.00 0.00 0.00 76 1009.8
20260507175105 62 268 4.3 7.0 0.00 0.00 0.00 77 1009.8
20260507174605 62 288 3.5 6.1 0.00 0.00 0.00 76 1009.8
20260507173604 62 262 3.5 6.1 0.00 0.00 0.00 76 1009.8
20260507172606 61 230 3.5 7.8 0.00 0.00 0.00 76 1009.8
20260507172105 62 248 2.6 7.0 0.00 0.00 0.00 76 1009.8
20260507171604 62 252 2.6 7.0 0.00 0.00 0.00 76 1009.7
20260507170606 62 270 2.6 5.2 0.00 0.00 0.00 75 1009.8
20260507170105 62 253 2.6 5.2 0.00 0.00 0.00 75 1009.8
20260507165604 62 273 2.6 5.2 0.00 0.00 0.00 75 1009.8
20260507165105 62 267 2.6 5.2 0.00 0.00 0.00 74 1009.8
20260507164605 62 233 0.9 6.1 0.00 0.00 0.00 75 1009.6
20260507164104 62 229 1.7 5.2 0.00 0.00 0.00 77 1009.7
20260507163604 61 157 0.0 5.2 0.00 0.00 0.00 77 1009.8
20260507163106 61 225 2.6 6.1 0.00 0.00 0.00 77 1009.8
20260507161605 60 192 2.6 4.3 0.00 0.00 0.00 78 1009.8
20260507161104 60 147 1.7 4.3 0.00 0.00 0.00 79 1009.8
20260507155605 59 172 0.9 2.6 0.00 0.00 0.00 82 1009.8
20260507155104 58 128 1.7 5.2 0.00 0.00 0.00 83 1010.2
20260507154604 58 226 1.7 2.6 0.00 0.00 0.00 84 1010.1
20260507154104 57 193 0.9 1.7 0.00 0.00 0.00 85 1009.9
20260507153604 57 220 0.9 2.6 0.00 0.00 0.00 85 1010.2
20260507153105 57 160 0.9 6.1 0.00 0.00 0.00 85 1010.0
20260507152605 56 228 0.9 2.6 0.00 0.00 0.00 85 1009.8
20260507152105 56 195 0.9 4.3 0.00 0.00 0.00 85 1010.2
20260507151104 56 157 0.9 7.0 0.00 0.00 0.00 86 1010.1
20260507145605 56 202 0.0 0.9 0.00 0.00 0.00 88 1010.2
20260507144604 55 225 0.9 2.6 0.00 0.00 0.00 88 1010.2
20260507144104 55 192 0.9 2.6 0.00 0.00 0.00 88 1010.2
20260507143605 55 193 0.0 2.6 0.00 0.00 0.00 89 1009.9
20260507142606 55 147 1.7 4.3 0.00 0.00 0.00 89 1009.8
20260507142105 55 196 0.9 4.3 0.00 0.00 0.00 89 1009.8
20260507141604 55 157 0.9 2.6 0.00 0.00 0.00 89 1009.8
20260507141104 54 180 0.9 2.6 0.00 0.00 0.00 89 1009.8
20260507140605 54 151 1.7 2.6 0.00 0.00 0.00 89 1009.7
20260507140106 54 157 0.9 5.2 0.00 0.00 0.00 89 1009.5
20260507135104 54 106 1.7 4.3 0.00 0.00 0.00 90 1009.7
20260507134604 54 133 1.7 2.6 0.00 0.00 0.00 90 1009.5
20260507134104 54 138 1.7 2.6 0.00 0.00 0.00 90 1009.6
20260507133104 54 153 2.6 6.1 0.00 0.00 0.00 91 1009.5
20260507132604 54 163 1.7 4.3 0.00 0.00 0.00 91 1009.5
20260507132104 54 161 0.0 2.6 0.00 0.00 0.00 91 1009.5
20260507131605 54 135 0.9 1.7 0.00 0.00 0.00 91 1009.5
20260507131105 54 135 0.9 2.6 0.00 0.00 0.00 91 1009.5
20260507130604 54 157 0.0 1.7 0.00 0.00 0.00 91 1009.5
20260507130105 54 157 0.9 1.7 0.00 0.00 0.00 91 1009.2
20260507125605 54 175 0.0 0.9 0.00 0.00 0.00 91 1009.2
20260507125104 54 157 0.9 1.7 0.00 0.00 0.00 92 1009.1
20260507123104 54 200 0.0 1.7 0.00 0.00 0.00 92 1009.2
20260507122604 54 157 0.0 1.7 0.00 0.00 0.00 92 1009.1
20260507122104 54 157 0.9 1.7 0.00 0.00 0.00 92 1009.4
20260507121604 54 180 0.0 2.6 0.00 0.00 0.00 92 1009.1
20260507120604 54 200 0.0 1.7 0.00 0.00 0.00 92 1009.1
20260507120104 54 247 0.9 2.6 0.00 0.00 0.00 92 1009.1
20260507115104 54 202 0.0 0.0 0.00 0.00 0.00 92 1009.2
20260507114103 54 135 0.0 1.7 0.00 0.00 0.00 93 1009.2
20260507113104 54 180 0.0 0.0 0.00 0.00 0.00 93 1009.1
20260507112604 54 225 0.9 0.9 0.00 0.00 0.00 93 1009.1
20260507112105 54 225 0.0 0.9 0.00 0.00 0.00 93 1009.1
20260507111604 54 157 0.0 0.9 0.00 0.00 0.00 93 1009.1
20260507110605 54 158 0.0 1.7 0.00 0.00 0.00 93 1009.1
20260507110105 54 202 0.0 0.9 0.00 0.00 0.00 93 1009.1
20260507105604 54 202 0.9 1.7 0.00 0.00 0.00 93 1009.1
20260507104604 54 239 0.9 1.7 0.00 0.00 0.00 93 1009.1
20260507104103 54 225 0.0 1.7 0.00 0.00 0.00 93 1009.1
20260507103604 54 210 0.0 0.9 0.00 0.00 0.00 93 1009.1
20260507103104 54 202 0.0 1.7 0.00 0.00 0.00 93 1009.2
20260507102604 54 187 0.0 1.7 0.00 0.00 0.00 93 1009.5
20260507101604 54 157 0.0 0.0 0.00 0.00 0.00 92 1009.1
20260507100605 54 202 0.0 0.0 0.00 0.00 0.00 92 1009.4
20260507100104 54 202 0.0 0.9 0.00 0.00 0.00 92 1009.1
20260507095604 54 202 0.0 1.7 0.00 0.00 0.00 92 1009.1
20260507095105 54 135 0.0 1.7 0.00 0.00 0.00 92 1009.1
20260507094104 54 135 0.0 1.7 0.00 0.00 0.00 92 1009.1
20260507093604 54 157 0.0 1.7 0.00 0.00 0.00 91 1009.1
20260507093104 54 162 0.0 2.6 0.00 0.00 0.00 91 1009.1
20260507092604 54 157 0.0 0.0 0.00 0.00 0.00 91 1009.4
20260507092104 54 150 0.9 2.6 0.00 0.00 0.00 91 1009.5
20260507091104 54 247 0.0 0.0 0.00 0.00 0.00 90 1009.2
20260507090605 54 247 0.0 1.7 0.00 0.00 0.00 90 1009.5
20260507090105 55 292 0.0 0.0 0.00 0.00 0.00 90 1009.5
20260507085604 55 292 0.0 1.7 0.00 0.00 0.00 90 1009.5
20260507085105 55 247 0.0 1.7 0.00 0.00 0.00 90 1009.5
20260507084604 55 157 0.0 1.7 0.00 0.00 0.00 90 1009.2
20260507084103 55 161 0.9 4.3 0.00 0.00 0.00 90 1009.5
20260507083605 55 162 0.9 2.6 0.00 0.00 0.00 90 1009.5
20260507083104 55 128 0.0 1.7 0.00 0.00 0.00 90 1009.5
20260507082104 55 157 0.9 4.3 0.00 0.00 0.00 91 1009.5
20260507081604 55 135 0.9 5.2 0.00 0.00 0.00 91 1009.5
20260507081104 55 148 0.9 5.2 0.00 0.00 0.00 91 1009.5
20260507080604 55 160 1.7 5.2 0.00 0.00 0.00 91 1009.5
20260507080104 55 138 0.9 4.3 0.00 0.00 0.00 91 1009.5
20260507075604 55 157 0.9 2.6 0.00 0.00 0.00 92 1009.5
20260507075104 55 135 0.0 1.7 0.00 0.00 0.00 92 1009.5
20260507074603 55 135 0.0 4.3 0.00 0.00 0.00 92 1009.5
20260507074104 55 170 0.9 2.6 0.00 0.00 0.00 92 1009.5
20260507073604 55 157 0.0 0.9 0.00 0.00 0.00 92 1009.4
20260507073104 55 135 0.0 0.0 0.00 0.00 0.00 92 1009.5
20260507072605 55 135 0.0 0.0 0.00 0.00 0.00 92 1009.5
20260507071604 55 90 0.0 0.0 0.00 0.00 0.00 91 1009.5
20260507070603 55 112 0.0 0.0 0.00 0.00 0.00 91 1009.5
20260507065604 55 112 0.0 0.0 0.00 0.00 0.00 91 1009.4
20260507065105 55 225 0.0 0.0 0.00 0.00 0.00 90 1009.4
20260507064603 55 202 0.0 0.0 0.00 0.00 0.00 90 1009.5
20260507064104 55 202 0.0 0.0 0.00 0.00 0.00 90 1009.5
20260507063604 56 202 0.0 0.0 0.00 0.00 0.00 90 1009.5
20260507063104 56 135 0.0 0.0 0.00 0.00 0.00 90 1009.5
20260507062603 56 225 0.0 0.0 0.00 0.00 0.00 90 1009.5
20260507062104 56 225 0.0 0.9 0.00 0.00 0.00 90 1009.5
20260507061106 55 157 0.0 0.0 0.00 0.00 0.00 89 1009.5
20260507060606 56 180 0.0 0.0 0.00 0.00 0.00 89 1009.5
20260507055107 56 180 0.0 0.0 0.00 0.00 0.00 88 1009.5
20260507054606 56 180 0.0 0.0 0.00 0.00 0.00 88 1009.5
20260507053605 56 225 0.0 0.0 0.00 0.00 0.00 87 1009.5
20260507053105 56 225 0.0 0.0 0.00 0.00 0.00 87 1009.5
20260507052605 56 225 0.0 0.0 0.00 0.00 0.00 87 1009.5
20260507052105 57 225 0.0 0.0 0.00 0.00 0.00 87 1009.5
20260507051606 57 225 0.0 1.7 0.00 0.00 0.00 87 1009.5
20260507051105 57 291 0.9 2.6 0.00 0.00 0.00 86 1009.5
20260507045606 58 225 0.9 1.7 0.00 0.00 0.00 86 1009.5
20260507045106 58 284 0.9 5.2 0.00 0.00 0.00 86 1009.5
20260507044105 58 249 1.7 2.6 0.00 0.00 0.00 85 1009.5
20260507043606 58 256 1.7 6.1 0.00 0.00 0.00 85 1009.2
20260507043106 58 292 1.7 5.2 0.00 0.00 0.00 85 1009.4
20260507042606 58 266 1.7 4.3 0.00 0.00 0.00 84 1009.4
20260507042106 58 291 2.6 4.3 0.00 0.00 0.00 84 1009.1
20260507041605 59 257 0.9 7.0 0.00 0.00 0.00 84 1009.1
20260507041105 59 231 1.7 7.0 0.00 0.00 0.00 83 1009.1
20260507040605 59 243 2.6 6.1 0.00 0.00 0.00 83 1009.1
20260507040105 59 256 1.7 5.2 0.00 0.00 0.00 83 1009.1
20260507035605 59 253 2.6 6.1 0.00 0.00 0.00 82 1009.1
20260507035106 59 255 1.7 4.3 0.00 0.00 0.00 82 1009.4
20260507034105 60 221 1.7 7.0 0.00 0.00 0.00 82 1009.1
20260507033606 60 251 3.5 7.8 0.00 0.00 0.00 82 1009.1
20260507033106 60 238 1.7 6.1 0.00 0.00 0.00 82 1008.8
20260507032606 60 273 3.5 8.7 0.00 0.00 0.00 81 1008.8
20260507031605 61 269 2.6 5.2 0.00 0.00 0.00 80 1008.8
20260507031105 61 249 4.3 8.7 0.00 0.00 0.00 80 1008.8
20260507030606 62 294 0.9 4.3 0.00 0.00 0.00 79 1008.8
20260507030105 62 258 2.6 4.3 0.00 0.00 0.00 78 1009.1
20260507025607 62 255 2.6 7.8 0.00 0.00 0.00 78 1008.8
20260507025105 63 282 3.5 10.4 0.00 0.00 0.00 77 1008.8
20260507024606 63 247 2.6 10.4 0.00 0.00 0.00 76 1008.8
20260507024105 64 248 2.6 7.0 0.00 0.00 0.00 75 1008.5
20260507023605 64 286 2.6 7.0 0.00 0.00 0.00 74 1008.5
20260507023105 65 276 2.6 6.1 0.00 0.00 0.00 74 1008.5
20260507022605 65 252 4.3 8.7 0.00 0.00 0.00 73 1008.2
20260507022106 65 263 2.6 10.4 0.00 0.00 0.00 72 1008.1
20260507020607 67 254 4.3 11.3 0.00 0.00 0.00 70 1008.1
20260507020106 67 277 4.3 10.4 0.00 0.00 0.00 69 1008.1
20260507015605 68 255 2.6 7.8 0.00 0.00 0.00 69 1008.1
20260507015106 68 256 4.3 7.8 0.00 0.00 0.00 68 1007.8
20260507014606 69 259 4.3 7.0 0.00 0.00 0.00 67 1007.8
20260507014105 69 265 4.3 7.8 0.00 0.00 0.00 66 1007.8
20260507013605 70 280 4.3 7.0 0.00 0.00 0.00 64 1007.8
20260507013106 71 279 4.3 10.4 0.00 0.00 0.00 63 1007.8
20260507012605 71 296 3.5 7.8 0.00 0.00 0.00 61 1007.8
20260507012106 72 272 4.3 8.7 0.00 0.00 0.00 61 1007.8
20260507011605 72 270 4.3 7.0 0.00 0.00 0.00 61 1007.8
20260507010105 72 260 2.6 7.8 0.00 0.00 0.00 61 1007.8
20260507005105 73 269 3.5 7.8 0.00 0.00 0.00 61 1007.8
20260507004605 73 272 2.6 7.8 0.00 0.00 0.00 61 1007.8
20260507004105 73 268 4.3 7.0 0.00 0.00 0.00 60 1007.8
20260507003606 73 271 2.6 7.0 0.00 0.00 0.00 60 1007.8
20260507003105 73 255 4.3 7.8 0.00 0.00 0.00 59 1007.8
20260507002606 74 259 4.3 7.8 0.00 0.00 0.00 58 1007.8
20260507002105 74 275 3.5 8.7 0.00 0.00 0.00 57 1007.8
20260507001105 75 259 4.3 7.0 0.00 0.00 0.00 55 1007.8
20260507000605 75 250 4.3 11.3 0.00 0.00 0.00 54 1007.8
20260507000105 75 275 1.7 5.2 0.00 0.00 0.00 54 1007.8
20260506235605 75 274 2.6 7.8 0.00 0.00 0.00 54 1007.8
20260506235105 75 244 2.6 5.2 0.00 0.00 0.00 54 1007.8
20260506234605 75 242 2.6 5.2 0.00 0.00 0.00 54 1007.8
20260506234105 75 230 2.6 6.1 0.00 0.00 0.00 53 1007.8
20260506233606 75 283 1.7 6.1 0.00 0.00 0.00 52 1007.8
20260506233106 75 252 1.7 4.3 0.00 0.00 0.00 52 1008.1
20260506232605 75 279 1.7 5.2 0.00 0.00 0.00 52 1007.8
20260506232105 75 321 1.7 5.2 0.00 0.00 0.00 53 1007.8
20260506231606 75 307 2.6 5.2 0.00 0.00 0.00 53 1008.1
20260506230605 75 245 2.6 5.2 0.00 0.00 0.00 53 1008.1
20260506230105 75 290 0.9 5.2 0.00 0.00 0.00 53 1008.1
20260506225606 75 267 1.7 5.2 0.00 0.00 0.00 53 1008.2
20260506224605 75 308 1.7 5.2 0.00 0.00 0.00 53 1008.5
20260506224105 74 327 0.9 6.1 0.00 0.00 0.00 53 1008.5
20260506223604 74 298 1.7 5.2 0.00 0.00 0.00 53 1008.5
20260506223106 74 313 1.7 6.1 0.00 0.00 0.00 53 1008.5
20260506221605 74 335 2.6 7.0 0.00 0.00 0.00 53 1008.8
20260506221105 74 337 2.6 7.0 0.00 0.00 0.00 54 1008.8
20260506220605 73 310 1.7 5.2 0.00 0.00 0.00 54 1008.8
20260506220106 73 307 1.7 5.2 0.00 0.00 0.00 54 1009.1
20260506215605 73 313 2.6 5.2 0.00 0.00 0.00 54 1009.2
20260506214604 73 305 2.6 6.1 0.00 0.00 0.00 54 1009.5
20260506214105 73 256 2.6 6.1 0.00 0.00 0.00 54 1009.2
20260506213605 73 326 1.7 4.3 0.00 0.00 0.00 54 1009.5
20260506213105 73 309 1.7 6.1 0.00 0.00 0.00 54 1009.5
20260506212605 73 320 1.7 6.1 0.00 0.00 0.00 54 1009.5
20260506212105 73 309 1.7 7.0 0.00 0.00 0.00 54 1009.5
20260506211605 73 286 2.6 5.2 0.00 0.00 0.00 55 1009.5
20260506211106 73 310 2.6 7.0 0.00 0.00 0.00 55 1009.5
20260506210605 73 269 3.5 7.0 0.00 0.00 0.00 54 1009.5
20260506210105 72 312 2.6 5.2 0.00 0.00 0.00 54 1009.5
20260506205605 72 306 1.7 6.1 0.00 0.00 0.00 52 1009.5
20260506205105 73 309 2.6 6.1 0.00 0.00 0.00 51 1009.5
20260506204605 73 311 1.7 4.3 0.00 0.00 0.00 52 1009.5
20260506204105 72 291 1.7 6.1 0.00 0.00 0.00 52 1009.5
20260506203605 72 300 2.6 6.1 0.00 0.00 0.00 52 1009.5
20260506203105 72 252 2.6 6.1 0.00 0.00 0.00 52 1009.8
20260506202604 72 280 1.7 6.1 0.00 0.00 0.00 52 1009.8
20260506202104 72 254 1.7 4.3 0.00 0.00 0.00 53 1009.8
20260506201604 72 277 2.6 5.2 0.00 0.00 0.00 54 1010.1
20260506201105 72 300 2.6 6.1 0.00 0.00 0.00 54 1010.2
20260506200604 72 288 1.7 7.0 0.00 0.00 0.00 54 1010.2
20260506200105 71 218 1.7 5.2 0.00 0.00 0.00 54 1010.2